Regional Weather Roundup
Issued by NWS Nashville, TN

Home | Current Version | Previous Version | Text Only | Print | Product List | Glossary On
Versions: 1 2 3 4 5 6 7 8 9 10 11 12 13 14 15 16 17 18 19 20 21 22 23 24 25 26 27
000
ASUS44 KOHX 302310
RWROHX
MIDDLE TENNESSEE HOURLY WEATHER ROUNDUP
NATIONAL WEATHER SERVICE NASHVILLE TN
600 PM CDT SUN APR 30 2017

NOTE: "FAIR" INDICATES FEW OR NO CLOUDS BELOW 12,000 FEET WITH
NO SIGNIFICANT WEATHER AND/OR OBSTRUCTIONS TO VISIBILITY.

* THESE REPORTS ARE NOT UNDER NWS QUALITY CONTROL AND MAY NOT
  REPORT WEATHER SUCH AS PRECIPITATION AND FOG.


TNZ005>011-023>034-057-059-062>066-078-080-010000
...NORTHERN MIDDLE TENNESSEE...

CITY           SKY/WX    TMP DP  RH WIND       PRES   REMARKS
CLARKSVILLE    CLOUDY    69  62  78 S16G24    29.74F
CROSSVILLE     TSTM      64  61  90 SW12G25   29.99R VSB 1/2
GALLATIN       MOSUNNY   68  64  88 SE9       29.85R
DICKSON        CLOUDY    66  63  90 S9        29.75F
LEBANON        CLOUDY    67  65  93 S12       29.82F
NASHVILLE      CLOUDY    69  64  84 SE21      29.80F
PORTLAND       MOSUNNY   68  64  88 S15       29.80R
SMYRNA         CLOUDY    68  65  90 SE14      29.82F
SPARTA         PTSUNNY   66  64  94 SE9       29.90F
SPRINGFIELD    MOSUNNY   68  64  88 SE13G26   29.75F
$$
TNZ056-058-060-061-075>077-079-093>097-010000
...SOUTHERN MIDDLE TENNESSEE...

CITY           SKY/WX    TMP DP  RH WIND       PRES   REMARKS
COLUMBIA       SUNNY    N/A N/A N/A S16       29.77F
FAYETTEVILLE     N/A     66  64  94 SE12      29.88F
MCMINNVILLE    MOSUNNY   68  68 100 CALM      29.92S
MURFREESBORO   CLOUDY    68  64  86 SE9       29.84
SHELBYVILLE    SUNNY     70  66  88 SE12      29.87F
TULLAHOMA      SUNNY     66  64  94 SE12      29.91F
WINCHESTER     PTSUNNY   66  64  94 SE10      29.93F
$$


...KEY TO REMARKS...
VSB - VISIBILITY IN MILES
WCI - WIND CHILL INDEX
HX  - HEAT INDEX





USA.gov is the U.S. government's official web portal to all federal, state and local government web resources and services.